Probability
0 0 0 1 2 3 3 2 1 2 2 1 0 1 2 2 3 3 3 4 5 6 5 6 8 9 7 5 4 6 8 9 9 9 7 6 5 4 4 3 3 2 3
0 0 1 2 3 3 3 2 1 1 1 0 0 0 1 1 2 2 2 3 3 2 3 4 7 8 8 6 5 5 7 8 9 8 6 6 6 5 4 3 3 3 3
1 1 1 3 4 3 3 3 1 1 0 0 0 1 1 0 1 1 1 1 1 0 1 3 5 7 7 7 7 6 6 7 8 7 6 7 7 6 5 4 3 3 3
2 2 3 3 4 4 3 3 3 2 1 0 1 1 1 0 0 0 0 0 0 0 1 2 4 5 6 7 8 8 8 9 9 8 7 8 7 6 6 6 5 4 4
4 3 3 3 4 3 3 3 3 3 2 1 1 2 1 0 0 0 0 0 0 0 1 1 2 3 4 7 9 9 10 11 9 7 7 8 7 6 6 7 6 5 4
6 5 4 3 3 3 3 3 3 3 1 1 1 2 1 0 0 0 0 0 0 0 1 1 1 1 3 6 10 10 8 8 7 6 5 5 5 5 5 6 6 5 4
9 7 5 3 3 4 4 4 4 3 1 1 2 2 1 0 0 0 0 0 0 0 0 0 0 0 1 5 8 7 5 4 4 5 5 5 5 5 5 5 5 4 4
10 9 6 5 5 5 5 5 4 2 1 2 2 1 0 0 0 0 0 0 0 0 0 0 0 0 1 2 4 4 3 4 5 7 7 7 6 6 4 3 2 3 3
10 9 7 6 7 7 6 4 2 1 2 1 1 0 0 0 0 0 0 0 0 0 0 0 0 0 0 1 1 2 2 3 6 8 9 8 7 5 3 1 0 1 1
11 10 9 8 7 6 5 2 0 1 1 1 0 0 0 0 0 0 0 0 0 0 0 0 0 0 0 0 0 1 1 1 4 6 7 8 7 5 3 1 1 1 1
10 11 11 9 7 6 3 1 0 0 0 0 0 0 0 0 0 0 0 0 0 0 0 0 0 0 0 0 0 0 0 0 1 3 4 5 6 6 4 3 3 4 3
10 11 12 10 8 5 2 0 0 0 0 0 0 0 0 0 0 0 0 0 0 0 0 0 0 0 0 0 0 0 0 0 0 1 1 2 4 4 4 4 4 4 5
10 10 11 10 8 5 2 0 0 0 0 0 0 0 0 0 0 0 0 0 0 0 0 0 0 0 0 0 0 0 0 0 0 0 0 1 2 2 2 3 3 3 3
11 11 11 10 8 5 1 0 0 0 0 0 0 0 0 0 0 0 0 0 0 0 0 0 0 0 0 0 0 0 0 0 0 0 0 0 0 0 0 1 1 2 1
12 12 12 10 7 4 1 0 0 0 0 0 0 0 0 0 0 0 0 0 0 0 0 0 0 0 0 0 0 0 0 0 0 0 0 0 0 0 0 0 0 0 0
13 13 13 10 6 3 1 0 0 0 0 0 0 0 0 0 0 0 0 0 0 0 0 0 0 0 0 0 0 0 0 0 0 0 0 0 0 0 0 0 0 0 0
13 14 13 9 5 3 2 2 1 0 0 0 0 0 0 0 0 0 0 0 0 0 1 1 1 0 0 0 0 0 0 0 0 0 0 0 0 0 0 0 0 0 0
14 14 12 8 5 4 5 4 3 1 1 0 0 0 0 0 0 0 0 0 0 0 1 2 2 1 1 1 1 1 1 0 0 0 0 0 0 0 0 0 0 0 0
18 15 10 7 5 6 6 4 3 3 3 1 0 0 0 1 1 1 1 1 0 0 2 3 4 3 2 2 2 2 1 0 0 0 0 0 0 0 0 0 0 0 0
21 17 11 7 7 7 6 5 4 5 5 3 1 1 2 4 4 4 3 3 2 2 3 4 5 5 4 3 3 1 0 0 0 0 0 0 0 0 0 0 0 0 0
20 17 13 10 9 8 6 5 6 7 7 5 4 4 5 5 5 5 4 5 5 5 6 6 6 5 4 3 2 1 0 0 0 0 0 0 0 0 0 0 0 0 0
15 14 13 12 10 8 6 5 6 7 8 7 6 6 6 5 5 4 3 3 4 5 6 6 6 5 4 3 2 1 0 0 0 0 0 0 0 0 0 0 0 0 0
13 12 11 12 11 9 6 3 4 6 7 8 8 7 6 6 6 5 3 2 3 3 4 6 6 6 6 5 4 2 1 0 0 1 1 1 0 0 0 0 0 0 0
11 10 10 11 11 9 6 2 2 4 6 7 7 7 6 6 6 5 4 4 3 3 4 5 6 6 6 5 5 4 2 1 0 1 1 1 0 0 0 0 0 0 0
9 9 10 11 11 9 5 1 1 5 7 6 6 6 6 6 6 5 4 4 3 3 4 4 4 3 3 3 4 4 3 1 0 0 0 0 0 0 0 0 0 0 0
7 9 10 11 11 9 5 1 2 5 7 6 5 4 5 6 6 4 3 3 3 3 3 3 3 2 1 2 3 3 3 1 0 0 0 0 0 0 0 0 0 0 0
Wind_Speed
2 2 1 1 1 1 1 1 1 1 1 1 2 3 2 2 2 2 1 5 7 7 8 8 8 8 7 7 6 6 6 6 6 7 7 7 7 7 7 7 7 7 7
2 2 2 1 1 1 1 1 1 2 1 1 1 2 2 2 2 2 1 3 6 7 7 7 6 6 7 7 6 6 6 6 6 6 6 6 6 7 7 7 7 6 6
3 3 2 2 1 1 1 1 2 2 2 2 2 2 1 2 2 2 2 1 2 5 7 6 7 6 6 6 6 6 6 6 6 6 6 6 5 5 5 6 6 7 7
3 3 2 1 1 2 2 2 2 2 2 2 2 1 1 1 1 2 2 2 1 2 4 7 7 6 6 6 6 5 5 5 5 5 6 6 5 5 4 5 6 6 6
3 3 2 1 1 2 2 2 2 2 2 2 2 1 1 1 1 2 2 2 2 2 2 5 7 6 5 5 5 4 5 4 4 4 5 6 5 5 5 5 5 5 6
3 3 2 2 2 2 2 2 2 2 2 2 2 2 1 1 1 1 1 1 1 2 2 2 2 3 5 4 4 4 4 4 4 3 4 4 5 5 5 5 5 5 5
3 3 2 2 2 2 2 2 3 2 1 1 2 2 3 2 2 1 1 1 1 1 2 2 2 1 2 4 4 3 3 3 3 3 4 4 3 3 4 5 5 5 5
3 3 3 2 2 2 2 2 2 2 1 1 2 2 2 3 3 2 1 1 1 1 1 2 2 2 2 1 2 4 3 3 3 3 4 4 3 3 4 5 5 5 6
4 3 3 3 2 2 2 1 2 3 1 0 1 3 2 1 2 2 2 1 1 0 0 0 1 2 2 1 1 2 3 3 3 3 4 4 3 3 4 4 5 5 5
3 4 4 4 3 2 2 1 2 2 3 1 0 1 2 3 2 1 2 2 1 0 0 0 1 1 1 2 2 3 3 3 3 3 3 4 4 4 4 4 4 5 5
3 4 4 3 3 2 2 2 2 2 2 2 1 1 1 1 1 2 0 2 2 1 1 1 1 1 1 2 2 2 3 3 3 3 3 3 4 4 4 4 4 4 5
2 3 3 3 3 2 2 2 2 2 2 2 1 2 2 2 1 2 1 1 1 2 1 1 0 1 1 1 3 3 3 3 3 3 3 3 4 4 4 4 4 4 4
2 3 3 3 2 2 2 2 2 2 2 2 2 1 2 2 2 2 2 1 1 2 2 1 1 1 1 1 2 2 3 3 3 3 3 3 3 3 4 4 4 4 4
4 4 4 3 3 3 2 2 1 1 1 1 2 2 1 1 2 2 3 2 0 2 2 2 1 1 1 1 2 3 2 4 4 4 4 4 4 3 3 3 3 3 3
4 4 4 4 3 3 3 2 1 2 1 1 1 2 2 1 1 2 2 3 3 1 2 2 1 2 1 1 1 1 2 3 4 5 5 5 4 4 3 3 3 3 3
4 5 5 4 3 3 3 2 2 1 1 1 1 2 1 1 1 1 2 1 2 3 2 2 2 2 2 1 1 1 2 3 4 5 6 5 5 5 4 4 4 4 4
5 5 5 5 4 3 3 2 2 2 2 1 1 1 1 1 1 1 1 1 1 2 2 2 1 1 1 1 1 1 2 2 2 5 6 6 5 5 5 5 5 5 5
5 5 5 4 4 4 3 3 3 2 2 2 1 1 1 1 1 1 1 2 1 2 2 2 2 1 1 2 1 2 1 1 2 4 5 5 5 5 5 5 5 5 5
5 4 4 4 4 4 3 3 3 3 3 3 2 2 2 2 2 1 2 2 1 1 2 2 2 1 1 1 1 2 1 1 2 2 3 5 5 5 5 6 6 6 6
5 5 4 4 3 3 3 3 2 2 2 2 2 2 3 3 3 3 2 3 2 2 1 1 1 1 1 1 0 1 2 2 2 1 1 2 4 6 6 6 7 6 6
5 4 4 3 3 3 3 3 3 3 2 2 1 1 2 3 3 3 2 3 3 2 1 1 1 1 1 1 1 1 1 2 2 1 1 2 2 2 3 5 6 6 6
3 3 3 3 3 2 3 4 3 2 2 2 1 1 1 1 2 3 3 3 4 3 3 2 2 2 3 3 2 1 1 0 2 2 0 2 1 2 2 2 4 5 6
4 3 3 3 3 2 4 5 5 3 2 2 2 2 1 1 2 1 1 1 1 3 4 4 4 4 4 4 3 2 2 3 3 3 1 2 1 2 2 2 4 5 5
3 3 3 3 3 2 3 4 4 3 2 2 3 3 2 2 2 2 2 1 1 2 3 3 4 5 5 4 5 4 4 3 2 2 2 2 2 2 2 2 3 5 5
2 2 3 3 3 3 4 4 4 2 1 2 3 3 3 3 3 3 2 2 2 3 3 4 5 5 5 6 4 2 1 1 2 2 2 2 2 2 2 2 3 5 5
3 2 2 3 3 3 3 4 4 2 2 1 2 2 4 4 3 4 3 3 3 4 2 3 2 3 3 3 4 4 4 3 2 2 2 2 1 0 2 2 2 2 2
Wind_Direction
154 151 142 137 140 135 128 114 95 111 138 131 137 143 151 162 173 188 189 177 177 176 174 172 173 178 180 182 179 173 174 179 179 181 186 191 196 198 198 199 202 204 201
145 136 134 135 146 151 146 135 123 124 122 111 109 135 148 167 178 177 188 179 176 175 176 176 172 176 182 178 172 169 170 172 175 181 187 191 195 197 195 193 197 199 197
141 143 137 135 147 133 125 100 87 89 99 103 91 97 115 152 169 186 184 174 174 177 174 178 181 186 188 180 180 179 180 180 181 187 189 186 188 194 198 197 201 202 199
141 138 132 136 125 112 103 106 102 98 94 93 88 78 79 91 140 169 166 164 175 189 183 186 182 187 189 188 187 187 185 187 190 191 188 186 185 186 189 194 196 198 196
142 135 134 135 117 102 99 108 103 118 115 104 103 88 71 77 109 137 146 165 184 189 182 178 180 186 185 187 182 186 195 193 189 195 197 194 191 193 193 196 197 197 197
143 136 132 121 114 103 93 96 107 101 117 126 96 75 44 36 61 93 130 130 144 172 177 176 179 191 187 182 185 191 197 196 190 189 190 192 195 196 197 197 197 196 196
143 136 131 126 122 126 139 126 116 109 99 103 84 47 14 14 34 46 82 87 89 154 156 167 170 178 176 172 181 186 190 193 195 203 206 201 196 194 197 193 195 192 194
148 145 139 139 132 123 117 112 113 119 134 114 117 92 17 357 359 13 38 84 86 80 140 171 163 169 177 183 182 188 198 201 203 206 204 194 185 193 194 196 197 196 197
158 152 150 145 134 126 138 140 124 128 135 42 113 132 138 219 319 347 10 52 67 40 270 190 168 177 181 180 196 205 199 207 208 205 193 184 189 194 194 196 202 205 206
159 160 158 152 144 136 145 162 135 134 131 130 7 90 147 156 150 332 343 357 10 303 315 194 164 184 201 192 194 190 185 190 193 190 190 189 194 200 200 200 206 205 207
165 165 157 152 152 150 156 159 145 143 143 143 140 118 82 77 109 138 273 328 342 320 285 243 179 202 225 210 209 205 185 182 191 195 204 208 205 203 203 204 205 207 210
171 171 160 159 159 156 162 166 168 160 161 142 135 132 136 140 172 143 171 262 301 308 315 306 233 233 233 226 218 201 193 189 195 207 219 223 213 211 207 206 206 210 213
177 188 172 168 167 174 173 162 158 164 166 159 166 167 159 169 161 147 143 194 295 309 336 336 282 243 240 236 225 198 193 181 193 206 217 226 224 219 214 212 213 217 216
185 181 175 175 175 177 178 164 166 191 179 174 181 168 152 181 163 157 159 154 94 330 323 292 307 270 261 224 218 204 203 197 203 211 212 217 222 217 216 220 218 212 214
178 172 173 176 182 180 177 164 181 213 196 179 183 172 166 199 181 170 165 160 154 194 272 272 285 292 287 254 229 205 217 218 216 219 217 220 217 215 216 218 218 213 218
173 170 175 178 181 181 179 174 183 203 181 199 171 152 172 201 194 189 179 170 157 166 225 255 249 273 292 291 251 227 234 232 228 229 227 222 216 215 218 222 226 225 227
173 177 181 179 181 185 186 183 200 179 174 199 186 153 197 188 179 210 186 171 168 155 202 270 274 296 310 298 310 284 252 228 235 236 232 225 221 224 227 230 236 238 238
177 181 180 178 184 187 188 188 199 188 179 192 198 172 221 189 208 222 185 191 192 181 183 240 285 306 293 268 267 275 270 242 242 242 227 232 229 230 235 240 243 243 241
169 171 173 177 184 188 191 197 192 188 191 196 193 194 211 187 223 234 206 201 201 193 179 192 260 282 294 296 326 310 301 303 272 248 222 232 234 235 237 239 242 244 241
165 169 173 175 177 178 183 191 185 184 197 204 203 202 202 192 204 212 213 210 190 167 162 174 250 282 286 295 35 309 321 320 300 286 262 244 243 241 240 242 243 240 237
167 168 165 164 169 173 184 181 185 183 186 193 207 204 199 191 189 202 201 198 180 173 172 197 245 278 279 284 245 244 263 296 295 264 294 277 254 250 249 245 244 237 235
148 148 156 161 166 184 189 182 176 179 179 183 205 226 234 215 203 204 201 193 185 187 197 201 227 231 246 242 232 226 224 307 293 280 256 285 257 260 255 242 239 236 233
151 153 165 164 171 193 185 179 180 171 181 197 205 210 241 251 222 215 233 232 230 224 210 200 213 229 231 229 210 224 228 225 240 243 174 268 273 268 265 258 240 232 233
159 174 180 173 174 201 189 182 180 173 182 207 212 203 206 245 243 211 214 234 249 252 235 216 213 229 231 227 209 211 220 235 261 251 172 222 259 262 269 265 243 235 242
172 186 180 178 183 212 204 195 175 167 183 233 237 225 209 222 240 210 197 239 269 278 272 253 235 236 242 240 221 180 201 196 266 264 212 188 234 267 271 262 257 249 246
185 178 176 186 189 209 214 196 175 166 183 236 261 252 230 221 222 197 196 212 243 261 265 288 286 277 264 255 228 199 197 199 216 255 234 187 217 185 288 273 259 262 256